| time (UTC) | temp F | wind direction | speed MPH | gust MPH | rain 1hr in | rain 24hr in | rain mn in | humidity % | barometer mb |
| 20260510123711 | 58 | 174 | 7.0 | 16.0 | 0.00 | 0.06 | 0.05 | 71 | 1016.9 |
| 20260510123153 | 58 | 163 | 5.0 | 22.0 | 0.00 | 0.06 | 0.05 | 70 | 1016.9 |
| 20260510122649 | 57 | 131 | 10.0 | 22.0 | 0.00 | 0.06 | 0.05 | 70 | 1016.8 |
| 20260510122146 | 57 | 117 | 7.0 | 17.0 | 0.00 | 0.06 | 0.05 | 72 | 1016.9 |
| 20260510121647 | 57 | 119 | 10.0 | 23.0 | 0.00 | 0.06 | 0.05 | 70 | 1017.0 |
| 20260510121147 | 57 | 128 | 12.0 | 23.0 | 0.00 | 0.06 | 0.05 | 71 | 1017.0 |
| 20260510120144 | 56 | 131 | 7.0 | 16.0 | 0.00 | 0.06 | 0.05 | 72 | 1016.8 |
| 20260510115633 | 56 | 130 | 5.0 | 16.0 | 0.00 | 0.06 | 0.05 | 73 | 1016.8 |
| 20260510115131 | 56 | 142 | 9.0 | 15.0 | 0.00 | 0.06 | 0.05 | 73 | 1016.9 |
| 20260510114630 | 56 | 146 | 4.0 | 15.0 | 0.00 | 0.06 | 0.05 | 73 | 1016.8 |
| 20260510114130 | 56 | 149 | 6.0 | 15.0 | 0.00 | 0.06 | 0.05 | 73 | 1016.7 |
| 20260510113626 | 56 | 128 | 8.0 | 14.0 | 0.00 | 0.06 | 0.05 | 73 | 1017.0 |
| 20260510113124 | 56 | 89 | 9.0 | 15.0 | 0.00 | 0.06 | 0.05 | 73 | 1016.9 |
| 20260510112121 | 56 | 163 | 4.0 | 18.0 | 0.00 | 0.06 | 0.05 | 73 | 1016.9 |
| 20260510111618 | 55 | 114 | 11.0 | 16.0 | 0.00 | 0.06 | 0.05 | 73 | 1016.9 |
| 20260510111116 | 55 | 102 | 7.0 | 15.0 | 0.00 | 0.06 | 0.05 | 75 | 1017.1 |
| 20260510110614 | 55 | 109 | 10.0 | 15.0 | 0.00 | 0.06 | 0.05 | 75 | 1017.1 |
| 20260510110116 | 54 | 117 | 5.0 | 14.0 | 0.00 | 0.06 | 0.05 | 77 | 1017.0 |
| 20260510105613 | 54 | 90 | 3.0 | 14.0 | 0.00 | 0.06 | 0.05 | 78 | 1017.3 |
| 20260510105114 | 54 | 126 | 9.0 | 17.0 | 0.00 | 0.06 | 0.05 | 77 | 1017.2 |
| 20260510104613 | 53 | 127 | 6.0 | 17.0 | 0.00 | 0.06 | 0.05 | 78 | 1017.3 |
| 20260510104111 | 53 | 114 | 8.0 | 14.0 | 0.00 | 0.06 | 0.05 | 79 | 1017.3 |
| 20260510103611 | 53 | 86 | 4.0 | 14.0 | 0.00 | 0.06 | 0.05 | 79 | 1017.3 |
| 20260510103110 | 53 | 159 | 4.0 | 17.0 | 0.00 | 0.06 | 0.05 | 80 | 1017.3 |
| 20260510102612 | 53 | 103 | 6.0 | 17.0 | 0.00 | 0.06 | 0.05 | 80 | 1017.0 |
| 20260510102114 | 52 | 127 | 6.0 | 16.0 | 0.00 | 0.06 | 0.05 | 81 | 1017.2 |
| 20260510101611 | 52 | 96 | 8.0 | 15.0 | 0.00 | 0.06 | 0.05 | 83 | 1017.2 |
| 20260510101112 | 52 | 148 | 8.0 | 12.0 | 0.00 | 0.06 | 0.05 | 83 | 1017.0 |
| 20260510100611 | 51 | 114 | 7.0 | 12.0 | 0.00 | 0.06 | 0.05 | 84 | 1017.4 |
| 20260510100115 | 51 | 125 | 6.0 | 12.0 | 0.00 | 0.06 | 0.05 | 84 | 1017.2 |
| 20260510095610 | 51 | 157 | 5.0 | 9.0 | 0.00 | 0.06 | 0.05 | 86 | 1017.4 |
| 20260510094604 | 50 | 100 | 1.0 | 6.0 | 0.00 | 0.06 | 0.05 | 91 | 1017.2 |
| 20260510094105 | 50 | 83 | 4.0 | 7.0 | 0.00 | 0.06 | 0.05 | 90 | 1017.3 |
| 20260510093604 | 50 | 123 | 2.0 | 9.0 | 0.00 | 0.06 | 0.05 | 89 | 1017.3 |
| 20260510093106 | 50 | 85 | 7.0 | 9.0 | 0.02 | 0.06 | 0.05 | 89 | 1017.3 |
| 20260510092106 | 50 | 29 | 1.0 | 9.0 | 0.02 | 0.06 | 0.05 | 92 | 1017.4 |
| 20260510091604 | 50 | 306 | 6.0 | 9.0 | 0.02 | 0.06 | 0.05 | 91 | 1017.7 |
| 20260510091105 | 51 | 297 | 4.0 | 6.0 | 0.02 | 0.06 | 0.05 | 89 | 1017.6 |
| 20260510090604 | 51 | 311 | 2.0 | 8.0 | 0.02 | 0.06 | 0.05 | 86 | 1017.4 |
| 20260510090104 | 51 | 41 | 2.0 | 9.0 | 0.02 | 0.06 | 0.05 | 86 | 1017.3 |
| 20260510085604 | 51 | 131 | 3.0 | 9.0 | 0.02 | 0.06 | 0.05 | 87 | 1017.3 |
| 20260510085104 | 51 | 115 | 6.0 | 8.0 | 0.02 | 0.06 | 0.05 | 88 | 1017.2 |
| 20260510084603 | 51 | 214 | 1.0 | 7.0 | 0.02 | 0.06 | 0.05 | 89 | 1017.3 |
| 20260510084103 | 50 | 133 | 6.0 | 9.0 | 0.02 | 0.06 | 0.05 | 90 | 1017.3 |
| 20260510083602 | 50 | 93 | 5.0 | 9.0 | 0.02 | 0.06 | 0.05 | 93 | 1017.1 |
| 20260510082603 | 49 | 268 | 3.0 | 5.0 | 0.00 | 0.04 | 0.02 | 92 | 1017.2 |
| 20260510081052 | 50 | 276 | 0.0 | 6.0 | 0.00 | 0.04 | 0.02 | 89 | 1017.2 |
| 20260510080546 | 50 | 191 | 2.0 | 6.0 | 0.00 | 0.04 | 0.02 | 89 | 1017.2 |
| 20260510075544 | 50 | 78 | 2.0 | 7.0 | 0.00 | 0.04 | 0.02 | 90 | 1017.2 |
| 20260510075045 | 50 | 77 | 4.0 | 5.0 | 0.00 | 0.04 | 0.02 | 91 | 1017.1 |
| 20260510074542 | 50 | 20 | 2.0 | 6.0 | 0.00 | 0.04 | 0.02 | 91 | 1017.3 |
| 20260510074043 | 50 | 136 | 0.0 | 6.0 | 0.00 | 0.04 | 0.02 | 91 | 1017.4 |
| 20260510073541 | 49 | 112 | 1.0 | 3.0 | 0.00 | 0.04 | 0.02 | 92 | 1017.4 |
| 20260510073040 | 49 | 135 | 1.0 | 5.0 | 0.01 | 0.04 | 0.02 | 92 | 1017.5 |
| 20260510072540 | 49 | 72 | 2.0 | 5.0 | 0.01 | 0.04 | 0.02 | 93 | 1017.6 |
| 20260510072039 | 49 | 40 | 4.0 | 4.0 | 0.01 | 0.04 | 0.02 | 93 | 1017.4 |
| 20260510071540 | 49 | 69 | 2.0 | 4.0 | 0.01 | 0.04 | 0.02 | 93 | 1017.5 |
| 20260510071039 | 49 | 87 | 2.0 | 4.0 | 0.01 | 0.04 | 0.02 | 93 | 1017.5 |
| 20260510070540 | 49 | 48 | 1.0 | 4.0 | 0.01 | 0.04 | 0.02 | 93 | 1017.6 |
| 20260510070052 | 49 | 51 | 0.0 | 3.0 | 0.01 | 0.04 | 0.02 | 92 | 1017.9 |
| 20260510065540 | 49 | 21 | 2.0 | 3.0 | 0.01 | 0.04 | 0.02 | 92 | 1017.9 |
| 20260510064540 | 49 | 192 | 0.0 | 2.0 | 0.01 | 0.04 | 0.02 | 92 | 1018.0 |
| 20260510064039 | 49 | 94 | 0.0 | 3.0 | 0.01 | 0.04 | 0.02 | 91 | 1018.1 |
| 20260510063538 | 49 | 294 | 0.0 | 5.0 | 0.01 | 0.04 | 0.02 | 91 | 1018.0 |
| 20260510063039 | 49 | 112 | 1.0 | 10.0 | 0.01 | 0.03 | 0.01 | 91 | 1018.0 |
| 20260510062537 | 49 | 296 | 4.0 | 10.0 | 0.01 | 0.03 | 0.01 | 90 | 1017.9 |
| 20260510062037 | 49 | 297 | 4.0 | 5.0 | 0.01 | 0.03 | 0.01 | 90 | 1017.7 |
| 20260510061550 | 49 | 278 | 3.0 | 5.0 | 0.01 | 0.03 | 0.01 | 89 | 1017.8 |
| 20260510061049 | 49 | 82 | 4.0 | 5.0 | 0.01 | 0.03 | 0.01 | 89 | 1017.7 |
| 20260510060535 | 49 | 78 | 2.0 | 5.0 | 0.01 | 0.03 | 0.01 | 89 | 1017.7 |
| 20260510060034 | 49 | 81 | 3.0 | 6.0 | 0.01 | 0.03 | 0.01 | 89 | 1017.7 |
| 20260510055534 | 49 | 300 | 4.0 | 6.0 | 0.01 | 0.03 | 0.01 | 87 | 1017.9 |
| 20260510055032 | 49 | 294 | 4.0 | 6.0 | 0.01 | 0.03 | 0.01 | 87 | 1017.7 |
| 20260510054532 | 49 | 129 | 0.0 | 6.0 | 0.01 | 0.03 | 0.01 | 85 | 1017.7 |
| 20260510054031 | 49 | 319 | 0.0 | 6.0 | 0.01 | 0.03 | 0.01 | 85 | 1017.5 |
| 20260510053531 | 49 | 263 | 3.0 | 4.0 | 0.01 | 0.03 | 0.01 | 84 | 1017.8 |
| 20260510053028 | 49 | 187 | 0.0 | 4.0 | 0.00 | 0.01 | 0.00 | 84 | 1017.9 |
| 20260510052527 | 49 | 133 | 1.0 | 5.0 | 0.00 | 0.01 | 0.00 | 83 | 1017.7 |
| 20260510052026 | 49 | 14 | 0.0 | 5.0 | 0.00 | 0.01 | 0.00 | 82 | 1017.6 |
| 20260510051524 | 49 | 151 | 2.0 | 8.0 | 0.00 | 0.01 | 0.00 | 83 | 1017.6 |
| 20260510051024 | 49 | 191 | 1.0 | 8.0 | 0.00 | 0.01 | 0.00 | 81 | 1017.5 |
| 20260510050520 | 49 | 181 | 2.0 | 6.0 | 0.00 | 0.01 | 0.00 | 80 | 1017.7 |
| 20260510045015 | 50 | 118 | 2.0 | 5.0 | 0.00 | 0.01 | 0.00 | 80 | 1017.8 |
| 20260510044514 | 49 | 229 | 3.0 | 5.0 | 0.00 | 0.01 | 0.00 | 80 | 1017.8 |
| 20260510043513 | 50 | 66 | 2.0 | 6.0 | 0.00 | 0.01 | 0.00 | 81 | 1017.9 |
| 20260510043012 | 50 | 303 | 4.0 | 6.0 | 0.00 | 0.01 | 0.00 | 79 | 1017.9 |
| 20260510042512 | 50 | 255 | 4.0 | 5.0 | 0.00 | 0.01 | 0.00 | 79 | 1018.0 |
| 20260510041454 | 50 | 204 | 1.0 | 10.0 | 0.00 | 0.01 | 0.00 | 78 | 1017.9 |
| 20260510040955 | 50 | 176 | 0.0 | 12.0 | 0.00 | 0.01 | 0.00 | 78 | 1017.9 |
| 20260510040453 | 49 | 62 | 5.0 | 12.0 | 0.00 | 0.01 | 0.00 | 78 | 1017.7 |
| 20260510035953 | 49 | 53 | 1.0 | 5.0 | 0.00 | 0.01 | 0.00 | 78 | 1017.9 |
| 20260510034948 | 49 | 296 | 3.0 | 10.0 | 0.00 | 0.01 | 0.00 | 79 | 1017.7 |
| 20260510034448 | 49 | 59 | 1.0 | 10.0 | 0.00 | 0.01 | 0.00 | 80 | 1017.6 |
| 20260510033445 | 49 | 179 | 0.0 | 4.0 | 0.00 | 0.01 | 0.00 | 77 | 1017.7 |
| 20260510032946 | 49 | 249 | 1.0 | 4.0 | 0.00 | 0.01 | 0.00 | 78 | 1017.5 |
| 20260510032445 | 49 | 24 | 0.0 | 5.0 | 0.00 | 0.01 | 0.00 | 77 | 1017.5 |
| 20260510031943 | 49 | 338 | 2.0 | 7.0 | 0.00 | 0.01 | 0.00 | 77 | 1017.5 |
| 20260510031443 | 49 | 24 | 3.0 | 7.0 | 0.00 | 0.01 | 0.00 | 77 | 1017.6 |
| 20260510030944 | 49 | 52 | 2.0 | 7.0 | 0.00 | 0.01 | 0.00 | 78 | 1017.6 |
| 20260510030445 | 49 | 309 | 2.0 | 4.0 | 0.00 | 0.01 | 0.00 | 79 | 1017.7 |
| 20260510025441 | 49 | 249 | 2.0 | 8.0 | 0.00 | 0.01 | 0.01 | 79 | 1017.7 |
| 20260510024942 | 49 | 43 | 4.0 | 11.0 | 0.00 | 0.01 | 0.01 | 79 | 1017.9 |
| 20260510023441 | 49 | 230 | 7.0 | 11.0 | 0.00 | 0.01 | 0.01 | 79 | 1017.7 |
| 20260510022440 | 49 | 302 | 3.0 | 6.0 | 0.00 | 0.01 | 0.01 | 80 | 1017.6 |
| 20260510021937 | 48 | 36 | 0.0 | 6.0 | 0.00 | 0.01 | 0.01 | 80 | 1017.7 |
| 20260510021434 | 48 | 294 | 2.0 | 7.0 | 0.00 | 0.01 | 0.01 | 81 | 1017.7 |
| 20260510020933 | 48 | 59 | 1.0 | 7.0 | 0.00 | 0.01 | 0.01 | 82 | 1017.7 |
| 20260510020427 | 48 | 309 | 3.0 | 7.0 | 0.00 | 0.01 | 0.01 | 82 | 1017.6 |
| 20260510015928 | 48 | 282 | 3.0 | 7.0 | 0.00 | 0.01 | 0.01 | 83 | 1017.6 |
| 20260510015426 | 48 | 104 | 3.0 | 9.0 | 0.00 | 0.01 | 0.01 | 83 | 1017.6 |
| 20260510014926 | 47 | 292 | 3.0 | 9.0 | 0.01 | 0.01 | 0.01 | 83 | 1017.8 |
| 20260510013921 | 47 | 267 | 2.0 | 6.0 | 0.01 | 0.01 | 0.01 | 84 | 1018.0 |
| 20260510013417 | 47 | 266 | 1.0 | 6.0 | 0.01 | 0.01 | 0.01 | 84 | 1018.1 |
| 20260510011911 | 47 | 85 | 2.0 | 5.0 | 0.01 | 0.01 | 0.01 | 84 | 1018.1 |
| 20260510011409 | 47 | 113 | 2.0 | 4.0 | 0.01 | 0.01 | 0.01 | 84 | 1018.4 |
| 20260510010910 | 47 | 215 | 2.0 | 3.0 | 0.01 | 0.01 | 0.01 | 84 | 1018.2 |
| 20260510010409 | 47 | 38 | 0.0 | 3.0 | 0.01 | 0.01 | 0.01 | 83 | 1018.4 |
| 20260510005909 | 48 | 241 | 0.0 | 4.0 | 0.01 | 0.01 | 0.01 | 81 | 1018.4 |
| 20260510005406 | 48 | 301 | 2.0 | 4.0 | 0.01 | 0.01 | 0.01 | 80 | 1018.3 |
| 20260510004905 | 48 | 79 | 2.0 | 3.0 | 0.00 | 0.00 | 0.00 | 82 | 1018.4 |
| 20260510002902 | 48 | 194 | 2.0 | 4.0 | 0.00 | 0.00 | 0.00 | 78 | 1018.2 |
| 20260510002359 | 48 | 299 | 2.0 | 7.0 | 0.00 | 0.00 | 0.00 | 79 | 1018.3 |
| 20260510001857 | 48 | 114 | 0.0 | 7.0 | 0.00 | 0.00 | 0.00 | 77 | 1018.2 |
| 20260510001355 | 48 | 178 | 0.0 | 3.0 | 0.00 | 0.00 | 0.00 | 77 | 1018.3 |
| 20260510000856 | 48 | 202 | 2.0 | 3.0 | 0.00 | 0.00 | 0.00 | 78 | 1018.3 |
| 20260510000352 | 48 | 107 | 1.0 | 3.0 | 0.00 | 0.00 | 0.00 | 77 | 1018.2 |
| 20260509235350 | 48 | 234 | 2.0 | 2.0 | 0.00 | 0.00 | 0.00 | 78 | 1018.3 |
| 20260509234846 | 48 | 210 | 0.0 | 3.0 | 0.00 | 0.00 | 0.00 | 78 | 1018.1 |
| 20260509234345 | 48 | 168 | 2.0 | 3.0 | 0.00 | 0.00 | 0.00 | 76 | 1018.1 |
| 20260509233843 | 48 | 160 | 0.0 | 4.0 | 0.00 | 0.00 | 0.00 | 77 | 1018.0 |
| 20260509233347 | 48 | 165 | 2.0 | 4.0 | 0.00 | 0.00 | 0.00 | 76 | 1018.2 |
| 20260509232842 | 49 | 197 | 2.0 | 5.0 | 0.00 | 0.00 | 0.00 | 76 | 1018.3 |
| 20260509232330 | 49 | 135 | 2.0 | 5.0 | 0.00 | 0.00 | 0.00 | 74 | 1018.1 |
| 20260509231837 | 49 | 205 | 2.0 | 4.0 | 0.00 | 0.00 | 0.00 | 73 | 1018.5 |
| 20260509231331 | 49 | 258 | 0.0 | 6.0 | 0.00 | 0.00 | 0.00 | 72 | 1018.3 |
| 20260509230832 | 50 | 182 | 3.0 | 6.0 | 0.00 | 0.00 | 0.00 | 68 | 1018.3 |
| 20260509230331 | 50 | 186 | 5.0 | 5.0 | 0.00 | 0.00 | 0.00 | 68 | 1018.2 |
| 20260509225829 | 50 | 264 | 2.0 | 8.0 | 0.00 | 0.00 | 0.00 | 66 | 1018.1 |
| 20260509225327 | 51 | 191 | 2.0 | 10.0 | 0.00 | 0.00 | 0.00 | 63 | 1018.1 |
| 20260509223824 | 51 | 175 | 5.0 | 10.0 | 0.00 | 0.00 | 0.00 | 58 | 1017.9 |
| 20260509223325 | 51 | 269 | 1.0 | 14.0 | 0.00 | 0.00 | 0.00 | 59 | 1018.0 |
| 20260509222825 | 52 | 186 | 2.0 | 15.0 | 0.00 | 0.00 | 0.00 | 57 | 1017.8 |
| 20260509221823 | 55 | 185 | 7.0 | 13.0 | 0.00 | 0.00 | 0.00 | 47 | 1017.5 |
| 20260509221324 | 55 | 234 | 5.0 | 15.0 | 0.00 | 0.00 | 0.00 | 44 | 1017.0 |
| 20260509220824 | 56 | 215 | 13.0 | 15.0 | 0.00 | 0.00 | 0.00 | 40 | 1017.1 |
| 20260509220324 | 56 | 171 | 9.0 | 13.0 | 0.00 | 0.00 | 0.00 | 41 | 1016.6 |
| 20260509215823 | 56 | 243 | 7.0 | 11.0 | 0.00 | 0.00 | 0.00 | 42 | 1016.7 |
| 20260509215322 | 56 | 246 | 4.0 | 9.0 | 0.00 | 0.00 | 0.00 | 42 | 1016.5 |
| 20260509213822 | 56 | 287 | 5.0 | 15.0 | 0.00 | 0.00 | 0.00 | 40 | 1016.2 |
| 20260509213321 | 57 | 237 | 5.0 | 15.0 | 0.00 | 0.00 | 0.00 | 38 | 1016.3 |
| 20260509212820 | 57 | 253 | 3.0 | 12.0 | 0.00 | 0.00 | 0.00 | 39 | 1016.3 |
| 20260509211820 | 57 | 297 | 4.0 | 9.0 | 0.00 | 0.00 | 0.00 | 38 | 1016.1 |
| 20260509211320 | 58 | 240 | 4.0 | 9.0 | 0.00 | 0.00 | 0.00 | 37 | 1016.2 |
| 20260509210819 | 58 | 293 | 6.0 | 9.0 | 0.00 | 0.00 | 0.00 | 36 | 1016.0 |
| 20260509210332 | 58 | 299 | 7.0 | 10.0 | 0.00 | 0.00 | 0.00 | 35 | 1016.3 |
| 20260509205818 | 58 | 268 | 8.0 | 12.0 | 0.00 | 0.00 | 0.00 | 35 | 1016.2 |
| 20260509205318 | 58 | 268 | 6.0 | 12.0 | 0.00 | 0.00 | 0.00 | 37 | 1016.2 |
| 20260509204816 | 58 | 287 | 7.0 | 11.0 | 0.00 | 0.00 | 0.00 | 36 | 1016.0 |
| 20260509204317 | 59 | 271 | 7.0 | 11.0 | 0.00 | 0.00 | 0.00 | 33 | 1016.0 |
| 20260509203816 | 59 | 291 | 5.0 | 9.0 | 0.00 | 0.00 | 0.00 | 34 | 1015.8 |
| 20260509203315 | 60 | 294 | 7.0 | 9.0 | 0.00 | 0.00 | 0.00 | 35 | 1015.7 |
| 20260509202316 | 60 | 259 | 5.0 | 16.0 | 0.00 | 0.00 | 0.00 | 35 | 1015.7 |
| 20260509201814 | 60 | 230 | 9.0 | 16.0 | 0.00 | 0.00 | 0.00 | 28 | 1015.6 |
| 20260509200312 | 61 | 228 | 6.0 | 14.0 | 0.00 | 0.00 | 0.00 | 30 | 1015.6 |
| 20260509195813 | 61 | 268 | 10.0 | 14.0 | 0.00 | 0.00 | 0.00 | 32 | 1015.6 |
| 20260509195313 | 61 | 287 | 7.0 | 16.0 | 0.00 | 0.00 | 0.00 | 32 | 1015.7 |
| 20260509194813 | 61 | 263 | 5.0 | 16.0 | 0.00 | 0.00 | 0.00 | 30 | 1015.6 |
| 20260509194312 | 61 | 330 | 4.0 | 14.0 | 0.00 | 0.00 | 0.00 | 32 | 1015.7 |
| 20260509193809 | 61 | 246 | 8.0 | 15.0 | 0.00 | 0.00 | 0.00 | 30 | 1015.5 |
| 20260509193309 | 60 | 282 | 6.0 | 17.0 | 0.00 | 0.00 | 0.00 | 35 | 1015.7 |
| 20260509192259 | 60 | 278 | 11.0 | 19.0 | 0.00 | 0.00 | 0.00 | 31 | 1015.7 |
| 20260509191759 | 60 | 220 | 17.0 | 18.0 | 0.00 | 0.00 | 0.00 | 29 | 1015.6 |
| 20260509191245 | 60 | 269 | 8.0 | 17.0 | 0.00 | 0.00 | 0.00 | 35 | 1015.7 |
| 20260509190241 | 60 | 260 | 8.0 | 19.0 | 0.00 | 0.00 | 0.00 | 34 | 1015.6 |
| 20260509185236 | 61 | 213 | 11.0 | 17.0 | 0.00 | 0.00 | 0.00 | 30 | 1015.7 |
| 20260509184734 | 60 | 272 | 9.0 | 16.0 | 0.00 | 0.00 | 0.00 | 29 | 1015.6 |
| 20260509184232 | 60 | 282 | 11.0 | 17.0 | 0.00 | 0.00 | 0.00 | 30 | 1015.4 |
| 20260509183731 | 60 | 248 | 9.0 | 17.0 | 0.00 | 0.00 | 0.00 | 31 | 1015.6 |
| 20260509183232 | 61 | 203 | 6.0 | 14.0 | 0.00 | 0.00 | 0.00 | 33 | 1015.4 |
| 20260509182730 | 61 | 186 | 4.0 | 18.0 | 0.00 | 0.00 | 0.00 | 35 | 1015.5 |
| 20260509182227 | 60 | 250 | 5.0 | 18.0 | 0.00 | 0.00 | 0.00 | 30 | 1015.4 |
| 20260509181724 | 60 | 251 | 4.0 | 14.0 | 0.00 | 0.00 | 0.00 | 33 | 1015.6 |
| 20260509181225 | 60 | 196 | 6.0 | 17.0 | 0.00 | 0.00 | 0.00 | 33 | 1015.8 |
| 20260509180719 | 60 | 169 | 6.0 | 17.0 | 0.00 | 0.00 | 0.00 | 34 | 1015.6 |
| 20260509175717 | 60 | 259 | 5.0 | 16.0 | 0.00 | 0.00 | 0.00 | 32 | 1015.7 |
| 20260509175212 | 61 | 267 | 6.0 | 16.0 | 0.00 | 0.00 | 0.00 | 36 | 1015.4 |
| 20260509174712 | 60 | 265 | 5.0 | 13.0 | 0.00 | 0.00 | 0.00 | 32 | 1015.7 |
| 20260509174211 | 60 | 239 | 9.0 | 13.0 | 0.00 | 0.00 | 0.00 | 31 | 1015.5 |
| 20260509173712 | 60 | 195 | 4.0 | 13.0 | 0.00 | 0.00 | 0.00 | 36 | 1015.5 |
| 20260509173208 | 60 | 179 | 5.0 | 16.0 | 0.00 | 0.00 | 0.00 | 41 | 1015.6 |
| 20260509172208 | 59 | 300 | 11.0 | 20.0 | 0.00 | 0.00 | 0.00 | 35 | 1015.3 |
| 20260509171706 | 59 | 244 | 4.0 | 13.0 | 0.00 | 0.00 | 0.00 | 35 | 1015.5 |
| 20260509171206 | 59 | 266 | 6.0 | 12.0 | 0.00 | 0.00 | 0.00 | 34 | 1015.5 |
| 20260509170707 | 59 | 277 | 6.0 | 14.0 | 0.00 | 0.00 | 0.00 | 36 | 1015.6 |
| 20260509170203 | 60 | 280 | 8.0 | 14.0 | 0.00 | 0.00 | 0.00 | 35 | 1015.5 |
| 20260509165701 | 59 | 262 | 7.0 | 14.0 | 0.00 | 0.00 | 0.00 | 35 | 1015.4 |
| 20260509165200 | 59 | 235 | 6.0 | 14.0 | 0.00 | 0.00 | 0.00 | 38 | 1015.2 |
| 20260509164700 | 59 | 323 | 5.0 | 14.0 | 0.00 | 0.00 | 0.00 | 37 | 1015.4 |
| 20260509164200 | 59 | 233 | 9.0 | 13.0 | 0.00 | 0.00 | 0.00 | 37 | 1015.3 |
| 20260509163700 | 59 | 299 | 11.0 | 16.0 | 0.00 | 0.00 | 0.00 | 37 | 1015.2 |
| 20260509163200 | 59 | 214 | 5.0 | 18.0 | 0.00 | 0.00 | 0.00 | 39 | 1015.3 |
| 20260509162157 | 59 | 125 | 4.0 | 13.0 | 0.00 | 0.00 | 0.00 | 43 | 1015.1 |
| 20260509161155 | 59 | 255 | 5.0 | 15.0 | 0.00 | 0.00 | 0.00 | 43 | 1015.3 |
| 20260509160656 | 58 | 240 | 6.0 | 13.0 | 0.00 | 0.00 | 0.00 | 46 | 1015.4 |
| 20260509160155 | 59 | 256 | 5.0 | 11.0 | 0.00 | 0.00 | 0.00 | 44 | 1015.5 |
| 20260509155655 | 58 | 197 | 4.0 | 16.0 | 0.00 | 0.00 | 0.00 | 44 | 1015.4 |
| 20260509155155 | 57 | 222 | 14.0 | 16.0 | 0.00 | 0.00 | 0.00 | 43 | 1015.5 |
| 20260509154656 | 57 | 237 | 9.0 | 16.0 | 0.00 | 0.00 | 0.00 | 44 | 1015.5 |
| 20260509154153 | 57 | 246 | 4.0 | 12.0 | 0.00 | 0.00 | 0.00 | 48 | 1015.5 |
| 20260509153653 | 56 | 237 | 9.0 | 18.0 | 0.00 | 0.00 | 0.00 | 42 | 1015.4 |
| 20260509153152 | 57 | 309 | 8.0 | 18.0 | 0.00 | 0.00 | 0.00 | 46 | 1015.4 |
| 20260509152649 | 58 | 244 | 3.0 | 12.0 | 0.00 | 0.00 | 0.00 | 46 | 1015.5 |
| 20260509152148 | 57 | 261 | 8.0 | 13.0 | 0.00 | 0.00 | 0.00 | 47 | 1015.4 |
| 20260509151647 | 57 | 292 | 6.0 | 13.0 | 0.00 | 0.00 | 0.00 | 45 | 1015.4 |
| 20260509151147 | 57 | 230 | 2.0 | 13.0 | 0.00 | 0.00 | 0.00 | 45 | 1015.3 |
| 20260509150646 | 56 | 217 | 7.0 | 16.0 | 0.00 | 0.00 | 0.00 | 42 | 1015.4 |
| 20260509150145 | 56 | 288 | 7.0 | 16.0 | 0.00 | 0.00 | 0.00 | 48 | 1015.5 |
| 20260509145645 | 56 | 266 | 8.0 | 13.0 | 0.00 | 0.00 | 0.00 | 47 | 1015.6 |
| 20260509144642 | 54 | 255 | 6.0 | 15.0 | 0.00 | 0.00 | 0.00 | 48 | 1015.4 |
| 20260509144143 | 54 | 263 | 7.0 | 12.0 | 0.00 | 0.00 | 0.00 | 48 | 1015.4 |
| 20260509143641 | 54 | 302 | 6.0 | 12.0 | 0.00 | 0.00 | 0.00 | 46 | 1015.5 |
| 20260509143154 | 54 | 284 | 8.0 | 14.0 | 0.00 | 0.00 | 0.00 | 47 | 1015.6 |
| 20260509142641 | 54 | 261 | 9.0 | 14.0 | 0.00 | 0.00 | 0.00 | 47 | 1015.6 |
| 20260509142137 | 54 | 267 | 7.0 | 14.0 | 0.00 | 0.00 | 0.00 | 48 | 1015.3 |
| 20260509141636 | 55 | 268 | 9.0 | 17.0 | 0.00 | 0.00 | 0.00 | 46 | 1015.4 |
| 20260509141133 | 55 | 281 | 9.0 | 17.0 | 0.00 | 0.00 | 0.00 | 47 | 1015.2 |
| 20260509140634 | 56 | 219 | 6.0 | 11.0 | 0.00 | 0.00 | 0.00 | 47 | 1015.2 |
| 20260509140129 | 58 | 198 | 6.0 | 11.0 | 0.00 | 0.00 | 0.00 | 50 | 1015.2 |
| 20260509135631 | 57 | 237 | 6.0 | 12.0 | 0.00 | 0.00 | 0.00 | 50 | 1015.2 |
| 20260509135124 | 56 | 218 | 5.0 | 12.0 | 0.00 | 0.00 | 0.00 | 47 | 1015.0 |
| 20260509134623 | 56 | 206 | 5.0 | 13.0 | 0.00 | 0.00 | 0.00 | 49 | 1015.1 |
| 20260509134123 | 55 | 195 | 8.0 | 13.0 | 0.00 | 0.00 | 0.00 | 50 | 1015.1 |
| 20260509133619 | 56 | 165 | 2.0 | 14.0 | 0.00 | 0.00 | 0.00 | 52 | 1015.0 |
| 20260509133118 | 55 | 266 | 6.0 | 14.0 | 0.00 | 0.00 | 0.00 | 52 | 1015.1 |
| 20260509132627 | 55 | 147 | 2.0 | 11.0 | 0.00 | 0.00 | 0.00 | 53 | 1014.8 |
| 20260509132117 | 55 | 219 | 5.0 | 11.0 | 0.00 | 0.00 | 0.00 | 54 | 1014.8 |
| 20260509131619 | 55 | 170 | 3.0 | 9.0 | 0.00 | 0.00 | 0.00 | 56 | 1014.9 |
| 20260509131117 | 55 | 268 | 3.0 | 9.0 | 0.00 | 0.00 | 0.00 | 56 | 1014.8 |
| 20260509130617 | 55 | 182 | 5.0 | 8.0 | 0.00 | 0.00 | 0.00 | 57 | 1014.8 |
| 20260509125615 | 54 | 194 | 4.0 | 8.0 | 0.00 | 0.00 | 0.00 | 56 | 1014.6 |
| 20260509125112 | 54 | 239 | 4.0 | 7.0 | 0.00 | 0.00 | 0.00 | 57 | 1014.4 |
| 20260509124612 | 54 | 187 | 2.0 | 7.0 | 0.00 | 0.00 | 0.00 | 60 | 1014.4 |